Date String (YYYY-MM-DD hh:mm:ss) UTC,Instrument flags,Ambient pressure (hPa),Sample flow (lpm),Bypass flow (lpm),Sample temperature (°C),Ambient temperature (°C),ASC tube jacket temperature (°C),LED temperature (°C),Box temperature (°C),Sample RH (%),Span deviation,Mass concentration (μg/m³),Mass concentration (μg/m³),Mass concentration (μg/m³)
DateTimeUTC,F1_M11,P_M11,Q1_M11,Q2_M11,T1_M11,T2_M11,T3_M11,T4_M11,T5_M11,U1_M11,ZSPAN_M11,X0_M11,X2_M11,X1_M11
2023-01-21 10:00:00,,0826.0,5.00,0.00,22.3,20.5,00.0,31.2,23.9,08.9,0000.0,0009.12,0005.14,0004.87
2023-01-21 10:01:00,,0825.9,4.99,0.00,22.3,21.3,00.0,31.2,24.1,08.8,0000.0,0009.09,0005.11,0004.86
2023-01-21 10:02:00,,0826.0,5.00,0.00,22.4,22.3,00.0,31.2,24.3,08.8,0000.0,0008.75,0005.10,0004.86
2023-01-21 10:03:00,,0825.9,5.01,0.00,22.6,23.0,00.0,31.2,24.5,08.8,0000.0,0008.28,0005.08,0004.84
2023-01-21 10:04:00,,0825.9,4.99,0.00,22.6,22.6,00.0,31.2,24.5,08.7,0000.0,0008.28,0005.04,0004.80
2023-01-21 10:05:00,,0826.0,5.02,0.00,22.6,22.1,00.0,31.3,24.5,08.7,0000.0,0008.26,0005.00,0004.76
2023-01-21 10:06:00,,0825.9,4.99,0.00,22.6,21.7,00.0,31.3,24.4,08.7,0000.0,0008.26,0004.98,0004.74
2023-01-21 10:07:00,,0826.0,5.01,0.00,22.5,21.4,00.0,31.3,24.3,08.8,0000.0,0008.21,0004.95,0004.71
2023-01-21 10:08:00,,0826.0,5.00,0.00,22.5,21.2,00.0,31.3,24.2,08.8,0000.0,0008.21,0004.93,0004.69
2023-01-21 10:09:00,,0825.9,5.00,0.00,22.5,20.9,00.0,31.3,24.1,08.8,0000.0,0008.19,0004.91,0004.67
2023-01-21 10:10:00,,0825.9,4.99,0.00,22.4,20.8,00.0,31.3,24.1,08.8,0000.0,0007.71,0004.88,0004.64
2023-01-21 10:11:00,,0826.0,5.00,0.00,22.4,20.7,00.0,31.2,24.0,08.8,0000.0,0007.44,0004.83,0004.61
2023-01-21 10:12:00,,0825.9,4.99,0.00,22.4,20.6,00.0,31.2,24.0,08.8,0000.0,0007.43,0004.80,0004.57
2023-01-21 10:13:00,,0825.9,5.00,0.00,22.3,20.5,00.0,31.2,23.9,08.8,0000.0,0007.48,0004.76,0004.52
2023-01-21 10:14:00,,0825.9,5.00,0.00,22.3,20.5,00.0,31.2,23.9,08.8,0000.0,0007.28,0004.71,0004.48
2023-01-21 10:15:00,,0826.0,5.02,0.00,22.3,21.4,00.0,31.2,24.1,08.8,0000.0,0007.12,0004.67,0004.46
2023-01-21 10:16:00,,0826.0,4.99,0.00,22.4,22.4,00.0,31.2,24.4,08.8,0000.0,0006.97,0004.65,0004.44
2023-01-21 10:17:00,,0826.0,5.00,0.00,22.6,23.0,00.0,31.2,24.6,08.7,0000.0,0006.99,0004.65,0004.44
2023-01-21 10:18:00,,0826.0,4.99,0.00,22.6,22.6,00.0,31.2,24.6,08.7,0000.0,0007.03,0004.66,0004.43
2023-01-21 10:19:00,,0826.0,5.01,0.00,22.6,22.1,00.0,31.3,24.5,08.7,0000.0,0006.96,0004.64,0004.42
2023-01-21 10:20:00,,0826.0,5.00,0.00,22.6,21.7,00.0,31.3,24.4,08.7,0000.0,0006.91,0004.63,0004.42
2023-01-21 10:21:00,,0825.9,5.01,0.00,22.6,21.4,00.0,31.3,24.3,08.7,0000.0,0006.85,0004.63,0004.42
2023-01-21 10:22:00,,0826.0,4.99,0.00,22.5,21.2,00.0,31.3,24.2,08.7,0000.0,0006.91,0004.65,0004.42
2023-01-21 10:23:00,,0826.0,5.01,0.00,22.5,21.0,00.0,31.3,24.2,08.7,0000.0,0006.80,0004.66,0004.43
2023-01-21 10:24:00,,0826.0,5.00,0.00,22.5,20.9,00.0,31.3,24.1,08.7,0000.0,0006.60,0004.65,0004.44
2023-01-21 10:25:00,,0825.9,5.00,0.00,22.4,20.8,00.0,31.3,24.1,08.7,0000.0,0006.61,0004.66,0004.46
2023-01-21 10:26:00,,0825.9,5.02,0.00,22.4,20.7,00.0,31.3,24.0,08.7,0000.0,0006.74,0004.69,0004.48
2023-01-21 10:27:00,,0825.9,4.99,0.00,22.4,20.6,00.0,31.2,24.0,08.7,0000.0,0006.82,0004.72,0004.51
2023-01-21 10:28:00,,0826.0,5.00,0.00,22.3,20.6,00.0,31.2,24.0,08.7,0000.0,0006.88,0004.75,0004.55
2023-01-21 10:29:00,,0825.9,5.02,0.00,22.3,20.7,00.0,31.2,24.0,08.7,0000.0,0006.95,0004.79,0004.60
2023-01-21 10:30:00,,0825.9,5.02,0.00,22.4,21.6,00.0,31.2,24.1,08.7,0000.0,0007.10,0004.85,0004.64
2023-01-21 10:31:00,,0825.9,4.99,0.00,22.5,22.6,00.0,31.2,24.4,08.7,0000.0,0007.30,0004.92,0004.68
2023-01-21 10:32:00,,0826.0,5.00,0.00,22.6,23.0,00.0,31.2,24.6,08.7,0000.0,0007.38,0004.97,0004.72
2023-01-21 10:33:00,,0825.9,4.99,0.00,22.6,22.5,00.0,31.3,24.5,08.6,0000.0,0007.54,0004.99,0004.75
2023-01-21 10:34:00,,0825.9,5.00,0.00,22.6,22.0,00.0,31.3,24.4,08.6,0000.0,0007.59,0005.02,0004.77
2023-01-21 10:35:00,,0825.8,5.00,0.00,22.6,21.6,00.0,31.3,24.3,08.6,0000.0,0007.66,0005.06,0004.78
2023-01-21 10:36:00,,0825.8,5.01,0.00,22.6,21.3,00.0,31.3,24.2,08.6,0000.0,0007.84,0005.10,0004.79
2023-01-21 10:37:00,,0825.8,4.99,0.00,22.5,21.1,00.0,31.3,24.2,08.7,0000.0,0007.86,0005.11,0004.80
2023-01-21 10:38:00,,0825.8,5.01,0.00,22.5,20.9,00.0,31.3,24.1,08.7,0000.0,0007.90,0005.12,0004.80
2023-01-21 10:39:00,,0825.8,5.01,0.00,22.4,20.7,00.0,31.3,24.1,08.7,0000.0,0008.05,0005.11,0004.78
2023-01-21 10:40:00,,0825.9,4.99,0.00,22.4,20.7,00.0,31.3,24.0,08.7,0000.0,0007.97,0005.07,0004.75
2023-01-21 10:41:00,,0826.0,5.00,0.00,22.4,20.6,00.0,31.2,24.0,08.7,0000.0,0007.92,0005.06,0004.73
2023-01-21 10:42:00,,0825.8,5.01,0.00,22.3,20.6,00.0,31.2,23.9,08.7,0000.0,0007.83,0005.00,0004.71
2023-01-21 10:43:00,,0825.8,4.99,0.00,22.3,20.5,00.0,31.2,23.9,08.8,0000.0,0007.77,0004.96,0004.69
2023-01-21 10:44:00,,0825.8,5.01,0.00,22.3,21.0,00.0,31.2,24.0,08.8,0000.0,0007.69,0004.97,0004.69
2023-01-21 10:45:00,,0825.9,5.00,0.00,22.4,22.0,00.0,31.1,24.2,08.7,0000.0,0007.74,0004.98,0004.69
2023-01-21 10:46:00,,0825.9,4.99,0.00,22.5,22.9,00.0,31.2,24.4,08.7,0000.0,0007.89,0004.99,0004.71
2023-01-21 10:47:00,,0825.8,4.98,0.00,22.6,22.6,00.0,31.2,24.5,08.6,0000.0,0007.79,0004.98,0004.71
2023-01-21 10:48:00,,0825.8,5.00,0.00,22.6,22.2,00.0,31.2,24.4,08.6,0000.0,0007.79,0004.99,0004.72
2023-01-21 10:49:00,,0825.9,5.00,0.00,22.5,21.7,00.0,31.2,24.3,08.6,0000.0,0007.89,0005.00,0004.73
2023-01-21 10:50:00,,0826.0,5.00,0.00,22.5,21.4,00.0,31.2,24.2,08.7,0000.0,0007.79,0005.02,0004.74
2023-01-21 10:51:00,,0825.9,5.00,0.00,22.5,21.2,00.0,31.2,24.2,08.7,0000.0,0007.87,0005.05,0004.76
2023-01-21 10:52:00,,0826.2,5.01,0.00,22.5,21.0,00.0,31.2,24.1,08.7,0000.0,0008.06,0005.07,0004.78
2023-01-21 10:53:00,,0826.1,4.99,0.00,22.4,20.9,00.0,31.2,24.1,08.7,0000.0,0008.30,0005.12,0004.80
2023-01-21 10:54:00,,0826.1,5.01,0.00,22.4,20.8,00.0,31.2,24.0,08.7,0000.0,0008.29,0005.12,0004.81
2023-01-21 10:55:00,,0826.1,4.99,0.00,22.4,20.6,00.0,31.2,24.0,08.7,0000.0,0008.27,0005.12,0004.82
2023-01-21 10:56:00,,0826.0,4.99,0.00,22.3,20.6,00.0,31.2,23.9,08.7,0000.0,0008.18,0005.10,0004.81
2023-01-21 10:57:00,,0825.9,5.01,0.00,22.3,20.5,00.0,31.2,23.9,08.7,0000.0,0007.99,0005.09,0004.81
2023-01-21 10:58:00,,0826.1,5.00,0.00,22.3,20.7,00.0,31.1,23.9,08.8,0000.0,0007.96,0005.07,0004.81
2023-01-21 10:59:00,,0825.8,5.00,0.00,22.3,21.7,00.0,31.1,24.2,08.7,0000.0,0007.91,0005.05,0004.79
